Hourly Data Report for October 27, 2014

All times are specified in Local Standard Time (LST). Add 1 hour to adjust for Daylight Saving Time where and when it is observed.

OTTAWA INTL A
ONTARIO

45°19'00.000" N
75°40'00.000" W
114.90 m
6106001
71628
YOW

Download Data

Hourly Data (October 2014)
Hourly Data Report for October 27, 2014
Temp Definition
°C
Dew Point Temp Definition
°C
Rel Hum Definition
%
Wind Dir Definition
10's deg

Wind Spd Definition
km/h
Visibility Definition
km
Stn Press Definition
kPa
Hmdx Definition


Wind Chill Definition


Weather Definition


TIME
00:00 Legend Double Dagger 6.0 2.5 78 30 14 24.1 99.54     LegendNANA
01:00 Legend Double Dagger 6.3 2.9 79 28 19 24.1 99.59     Mostly Cloudy
02:00 Legend Double Dagger 6.2 2.1 75 30 33 24.1 99.66     LegendNANA
03:00 Legend Double Dagger 5.4 1.9 78 31 27 24.1 99.71     LegendNANA
04:00 Legend Double Dagger 4.9 1.6 79 29 22 24.1 99.81     Mainly Clear
05:00 Legend Double Dagger 4.5 1.5 81 29 19 24.1 99.85     LegendNANA
06:00 Legend Double Dagger 3.9 1.1 82 30 21 24.1 99.95     LegendNANA
07:00 Legend Double Dagger 3.9 1.8 86 30 15 24.1 100.03     Clear
08:00 Legend Double Dagger 5.3 2.3 81 30 22 24.1 100.12     LegendNANA
09:00 Legend Double Dagger 5.7 2.2 78 29 22 24.1 100.23     LegendNANA
10:00 Legend Double Dagger 7.1 2.8 74 29 18 24.1 100.24     Mainly Clear
11:00 Legend Double Dagger 8.7 3.4 69 29 17 24.1 100.25     LegendNANA
12:00 Legend Double Dagger 8.6 2.9 67 31 14 24.1 100.19     LegendNANA
13:00 Legend Double Dagger 9.8 3.6 65 25 13 24.1 100.17     Mainly Clear
14:00 Legend Double Dagger 10.1 3.9 65 25 16 24.1 100.16     LegendNANA
15:00 Legend Double Dagger 10.2 3.7 64 23 9 24.1 100.09     LegendNANA
16:00 Legend Double Dagger 9.2 3.8 69 31 8 24.1 100.17     Mostly Cloudy
17:00 Legend Double Dagger 8.5 3.6 71 36 9 24.1 100.21     LegendNANA
18:00 Legend Double Dagger 7.1 4.3 82 10 8 24.1 100.15     LegendNANA
19:00 Legend Double Dagger 7.6 4.0 78 7 10 24.1 100.10     Cloudy
20:00 Legend Double Dagger 7.2 4.2 81 13 7 24.1 100.13     LegendNANA
21:00 Legend Double Dagger 7.6 4.4 80 9 9 24.1 100.15     Rain
22:00 Legend Double Dagger 7.1 5.1 87 8 13 24.1 100.12     Rain
23:00 Legend Double Dagger 6.6 5.6 93 9 8 24.1 100.14     Rain

Notes on Data Quality.

Legend

  • E = Estimated
  • M = Missing
  • NA = Not Available
  • ‡ = Partner data that is not subject to review by the National Climate Archives
Date modified: